Theta_e
316 320 320 322 318 313 315 316 315 317 315 315 319 320 320 321 323 320 330 338 339 337 338 338 336 334 334 336 338 337 338 338 331 337 338 336 335 331 328 326 330 330 330 327 325 321 317 319 323
319 320 322 313 312 313 313 314 316 316 314 314 314 315 319 327 324 326 329 340 341 338 338 339 337 335 334 335 338 335 331 329 330 337 337 336 333 326 325 323 326 328 327 325 321 314 311 311 317
319 320 315 314 311 313 314 313 313 313 312 314 315 315 319 323 325 327 330 338 342 338 339 339 338 336 334 334 335 334 331 329 330 335 336 335 332 329 326 324 324 322 320 319 318 313 306 305 310
318 317 311 312 315 314 313 312 312 314 314 313 314 318 319 322 327 329 330 340 341 340 340 339 339 338 338 336 336 334 332 331 331 334 335 335 331 328 327 327 326 325 324 321 308 302 302 303 307
317 311 314 313 315 315 313 311 311 314 314 314 315 316 319 323 329 332 337 341 341 339 338 339 339 338 337 337 334 334 333 331 331 333 334 334 330 329 328 327 325 324 323 322 320 305 300 302 306
315 310 313 314 313 315 314 311 311 311 311 314 314 314 315 321 331 335 336 340 341 339 338 339 339 339 338 338 336 334 334 333 332 332 332 333 330 329 329 326 325 324 323 323 321 320 309 300 304
313 311 315 312 313 315 316 312 309 309 311 313 311 313 312 315 324 335 336 340 341 341 340 340 340 340 340 339 338 337 335 334 334 334 332 332 330 330 329 327 325 324 323 322 322 321 320 317 305
309 309 313 312 312 314 314 313 310 312 313 310 310 311 312 312 320 324 335 335 339 339 337 337 339 340 340 340 339 338 336 335 335 335 333 332 331 330 329 328 326 324 323 322 322 321 320 320 318
308 308 311 314 313 315 313 313 313 310 310 309 308 309 310 315 317 316 317 325 330 334 335 334 335 336 336 338 339 339 338 337 335 334 334 333 331 331 330 329 328 325 323 323 322 322 321 320 319
310 308 314 314 313 313 312 313 312 313 311 310 309 308 310 312 314 312 311 311 312 316 322 331 333 334 334 334 337 335 336 337 336 335 334 333 332 331 330 329 328 326 324 323 322 322 321 320 319
311 311 312 314 316 313 312 314 312 310 312 309 309 307 307 309 311 309 309 310 311 311 312 312 317 328 333 332 333 335 336 336 335 335 335 334 333 331 331 329 328 327 326 325 323 322 320 319 318
312 312 314 315 314 315 313 313 313 311 312 310 307 306 306 305 306 308 308 309 310 311 312 312 313 314 325 333 332 331 333 334 333 334 335 334 334 332 330 328 327 326 325 325 324 323 321 320 319
314 314 314 314 314 314 314 314 313 312 308 305 306 306 304 305 306 307 308 309 310 311 312 313 314 315 319 331 330 330 333 334 334 335 334 334 333 331 329 327 326 325 324 323 324 323 322 321 320
314 313 314 314 314 314 314 314 314 310 305 305 306 305 303 304 305 306 307 309 310 311 312 313 317 317 319 329 328 329 331 332 333 333 332 332 331 329 326 326 324 323 323 323 322 321 321 318 317
313 312 311 312 313 314 312 313 312 308 304 305 304 303 302 304 305 306 307 308 310 311 312 314 317 317 322 326 327 328 328 328 329 330 329 329 327 326 324 323 322 321 320 320 319 318 317 314 311
313 312 314 313 311 313 311 311 312 305 305 305 303 301 301 301 304 305 306 307 310 311 312 314 317 317 322 324 325 325 325 326 326 326 325 324 323 322 322 320 318 316 316 315 315 312 311 309 309
311 313 313 313 310 311 310 313 312 304 305 305 303 301 301 300 301 303 304 307 310 312 312 314 316 317 321 321 321 320 320 320 319 320 321 320 318 317 317 315 314 314 313 311 307 302 303 306 308
313 313 313 315 313 311 311 310 310 307 306 306 303 301 301 300 300 302 304 307 310 312 312 314 315 317 318 318 317 316 316 315 315 315 317 314 314 314 313 311 310 310 309 303 296 296 300 306 306
313 313 315 314 313 312 311 311 310 307 306 305 304 303 302 302 300 302 304 307 310 311 312 313 314 314 316 314 312 309 309 308 309 310 311 310 310 309 308 306 306 306 300 294 294 294 297 304 301
312 313 312 312 312 311 312 311 310 308 308 308 307 305 304 300 298 300 303 307 309 310 311 312 313 312 311 313 310 308 306 303 304 305 305 305 305 303 301 298 298 295 293 292 292 293 292 291 296
313 313 313 315 313 311 311 311 311 310 308 307 307 308 305 303 300 299 301 306 308 309 310 311 311 309 307 309 307 304 300 299 298 299 300 299 296 295 294 292 292 291 292 291 291 291 291 288 288
315 312 314 315 315 316 312 316 313 311 310 309 309 307 306 302 300 299 301 304 307 309 310 310 309 307 307 307 306 306 302 296 294 294 294 292 291 291 291 291 291 290 290 289 289 289 289 289 287
315 313 313 314 313 315 314 314 313 312 313 312 313 308 305 301 300 300 301 304 306 309 308 309 307 306 305 305 305 303 299 297 292 290 289 289 289 289 289 289 289 289 289 288 288 288 287 287 287
311 313 312 312 313 316 315 314 314 314 316 314 313 311 304 301 300 300 301 303 306 307 307 307 307 305 303 303 303 303 301 293 289 288 288 288 287 287 287 288 288 288 287 287 287 286 286 285 285
313 313 316 318 316 319 314 314 317 314 313 313 315 311 303 301 299 299 298 301 301 303 305 305 305 303 302 301 300 299 298 293 290 288 288 287 287 287 287 287 287 287 287 286 286 285 285 284 284
313 313 316 318 318 317 312 317 317 312 312 309 307 306 301 298 298 298 299 300 299 299 301 302 303 304 300 299 298 296 294 291 289 289 288 288 287 287 286 286 287 286 286 285 285 285 284 284 283
313 315 315 317 299 311 316 314 313 310 309 308 307 305 299 298 298 297 298 298 296 297 299 300 301 300 297 296 295 293 291 290 289 288 288 288 287 286 286 286 286 285 285 285 285 285 284 283 283
312 311 316 313 316 317 317 317 320 314 312 311 309 305 300 297 296 296 295 295 295 296 297 298 298 297 296 296 294 292 290 289 289 288 288 287 287 286 286 285 285 285 285 285 284 284 284 283 283
313 314 314 315 314 317 316 318 311 315 312 311 309 305 301 297 295 294 294 294 294 294 295 295 295 295 295 294 293 291 290 289 289 288 288 287 286 286 286 285 285 285 285 285 285 284 284 283 282
312 314 313 316 315 313 314 321 310 311 311 309 308 304 301 298 295 294 293 292 291 292 292 292 292 293 293 293 292 290 290 289 288 288 287 287 286 286 285 285 285 285 285 285 285 285 284 283 282
Wind_Speed
8 5 4 4 5 5 2 1 1 0 4 3 3 9 9 4 2 3 1 3 15 19 17 14 13 15 15 16 15 15 14 14 15 15 16 16 17 17 17 17 17 17 17 17 17 16 15 15 15
8 5 3 3 5 4 3 3 4 3 6 8 8 4 8 4 2 3 3 10 18 19 17 17 14 14 14 13 13 13 13 13 14 15 14 15 15 16 17 19 19 18 17 18 17 16 15 14 14
4 4 4 4 4 4 5 4 7 6 8 3 5 6 4 1 2 2 6 13 16 17 17 15 14 13 12 12 12 12 12 13 14 13 13 13 14 15 17 19 20 21 20 18 18 17 16 16 14
2 6 4 5 3 1 7 6 5 6 4 7 5 7 3 3 1 2 3 16 16 13 16 15 14 13 11 8 10 11 11 12 12 13 12 11 12 14 16 19 21 21 21 20 20 19 18 17 17
5 3 5 4 3 3 1 4 8 4 2 4 2 4 3 4 9 8 16 21 14 15 14 14 13 13 10 8 8 9 10 10 11 11 12 12 12 13 16 18 20 21 21 21 21 21 19 18 17
4 3 5 2 2 2 3 6 7 3 3 3 6 5 4 4 13 13 15 18 18 15 15 14 13 13 12 10 9 9 9 9 10 10 11 12 11 12 14 16 18 19 20 20 20 21 20 18 16
6 4 4 4 5 3 4 6 8 7 5 3 9 5 2 3 11 14 16 17 18 17 17 15 14 14 13 12 11 9 10 10 10 10 11 13 12 12 12 13 15 16 15 16 17 18 19 19 16
5 4 3 3 6 4 3 3 5 5 3 3 2 6 5 8 14 14 15 15 17 17 16 14 18 15 13 12 11 11 11 11 11 12 12 13 13 12 9 12 12 13 12 12 12 14 15 17 16
3 5 2 0 5 4 2 4 1 3 7 4 4 4 4 23 19 17 15 14 13 14 15 16 16 17 15 15 13 12 12 12 11 12 12 13 13 12 12 11 10 10 11 9 8 12 12 14 15
5 4 5 2 3 5 5 5 7 4 4 3 3 4 13 19 20 18 15 13 11 11 13 15 16 18 16 15 13 13 12 12 12 12 12 12 12 14 13 11 9 9 9 10 11 11 10 10 12
3 4 3 2 2 4 5 2 3 8 3 7 9 10 9 15 16 18 14 13 12 11 10 11 14 17 19 16 14 14 14 15 14 12 12 14 17 17 14 11 9 7 7 8 7 7 8 8 9
3 1 2 3 0 3 5 3 4 5 5 3 9 13 9 13 16 19 17 15 14 12 10 10 11 14 17 20 17 15 14 16 15 15 16 16 18 17 13 11 10 9 8 6 5 5 6 8 7
2 1 1 3 4 2 1 3 4 5 2 6 15 10 9 11 15 14 14 13 13 12 9 9 10 14 18 20 18 18 16 17 16 17 19 20 21 17 15 12 12 10 8 4 4 5 6 7 8
3 0 3 4 3 3 5 3 3 2 6 7 9 9 8 12 16 13 15 14 13 11 10 9 10 15 19 22 20 20 18 18 19 19 19 19 19 17 17 15 10 8 6 5 4 7 7 9 11
1 3 4 6 5 4 4 5 9 5 8 9 9 8 8 13 16 19 18 16 14 11 10 10 11 15 19 21 21 20 19 18 18 18 16 16 17 17 15 14 12 11 10 9 8 9 8 9 12
2 3 2 2 7 2 5 7 4 9 13 11 10 8 8 8 18 17 16 15 14 13 13 13 13 17 20 21 22 22 21 21 19 19 19 17 17 18 18 17 16 14 13 11 9 10 10 12 14
4 3 5 7 7 4 5 6 2 6 9 9 9 9 9 8 13 18 17 16 15 14 16 17 17 20 22 22 24 24 24 23 22 21 17 19 20 19 18 17 17 14 13 12 12 14 15 16 17
6 5 5 5 4 2 4 11 5 7 8 12 10 10 10 11 13 22 18 17 15 16 16 18 21 23 24 24 23 23 22 22 21 20 18 20 20 18 17 18 18 15 15 16 16 18 19 19 23
4 4 4 4 4 6 8 9 11 9 8 10 10 12 14 16 13 21 20 19 18 19 20 22 25 26 27 28 28 26 25 23 22 21 21 20 19 18 18 20 20 18 18 18 17 19 22 25 27
5 5 7 6 4 7 6 11 11 5 9 14 18 16 17 8 9 20 25 24 25 24 24 25 27 29 29 31 30 28 28 23 23 22 20 20 20 21 22 23 23 20 20 18 16 16 22 21 7
6 7 5 8 2 3 3 6 9 10 8 7 14 17 13 19 18 15 23 30 28 28 28 28 29 30 29 29 29 29 24 26 24 23 23 23 23 24 24 23 23 22 20 20 19 17 16 17 19
7 7 6 5 2 5 3 7 5 6 11 9 17 14 17 14 14 15 23 27 33 32 28 29 29 29 28 28 30 33 33 31 27 28 27 26 24 24 23 23 22 21 20 20 20 18 17 14 14
7 4 5 3 3 2 3 5 6 4 8 12 18 13 14 16 21 21 27 31 35 32 31 31 32 29 29 29 31 32 33 29 32 31 30 27 26 24 23 22 21 21 20 19 18 17 16 15 15
6 5 6 4 3 4 10 8 5 6 14 9 17 12 14 16 18 18 24 27 34 32 32 34 32 30 30 30 32 33 35 39 37 34 32 29 27 25 23 21 20 19 19 18 17 16 14 13 14
5 7 2 3 1 8 3 6 14 7 11 14 16 10 10 11 15 16 16 25 30 37 37 36 35 33 32 31 32 34 37 41 41 38 36 33 30 26 24 21 20 19 18 17 16 13 12 12 11
8 9 6 7 5 5 0 7 6 13 12 7 8 8 7 9 12 15 20 26 29 35 39 38 37 35 34 34 35 36 40 41 39 38 36 33 30 27 24 22 19 18 17 16 14 12 10 9 9
7 9 5 2 2 1 6 8 7 10 9 10 12 4 7 9 13 15 19 25 29 34 40 40 39 38 37 37 37 39 41 40 39 35 32 30 28 27 24 21 19 18 16 14 12 9 8 7 7
6 8 2 1 2 6 5 6 9 4 12 13 13 7 9 8 9 11 17 23 27 32 36 38 39 40 40 39 40 41 40 38 36 35 33 32 30 28 25 22 19 18 16 13 11 9 7 5 5
4 5 4 5 6 5 3 7 7 13 11 12 12 9 9 12 13 12 15 21 26 30 35 38 39 39 40 40 40 41 39 37 36 35 34 32 30 27 25 23 21 19 17 15 12 9 7 5 4
1 4 6 5 6 5 3 17 6 6 5 8 10 8 9 12 13 12 16 21 24 29 34 37 39 41 41 41 42 41 40 38 38 35 34 32 30 27 25 24 21 19 17 15 13 11 8 6 5
Wind_Direction
351 348 337 48 59 68 42 81 237 65 46 354 45 103 112 65 69 176 125 164 159 152 152 143 139 130 125 115 108 109 106 105 102 99 96 84 81 76 69 68 67 61 57 53 52 55 59 64 69
358 11 56 80 85 75 289 299 111 132 137 146 90 66 52 54 49 110 121 152 154 153 154 148 146 137 132 123 125 120 115 110 103 105 103 92 86 76 70 68 69 67 61 58 52 52 54 59 67
19 21 78 87 109 151 166 219 158 133 173 149 93 56 94 79 351 120 104 157 157 156 155 146 143 140 137 135 127 118 112 107 105 107 108 98 91 81 74 70 64 62 60 58 57 56 57 63 69
25 22 34 79 86 265 158 194 189 136 148 84 121 69 36 359 357 120 135 153 151 153 160 154 151 139 137 143 135 128 123 117 117 119 119 110 98 85 78 72 65 62 60 57 57 58 61 66 74
57 59 57 67 30 97 91 191 151 127 88 75 143 148 101 46 94 114 133 157 154 154 158 158 157 157 168 158 151 141 134 129 124 127 132 127 111 96 87 80 74 68 64 60 60 59 61 65 73
44 93 67 154 203 144 159 184 133 114 126 167 74 101 172 115 107 109 133 139 150 161 166 168 172 171 167 160 158 150 151 144 135 137 137 139 125 113 101 94 84 71 58 58 60 61 60 63 67
106 80 171 144 176 154 191 151 139 145 128 72 143 113 190 167 127 123 126 137 152 155 161 173 177 179 176 174 170 164 163 159 150 151 152 154 143 124 111 107 99 80 64 60 61 64 63 63 63
102 91 104 189 182 210 233 93 126 135 119 122 95 168 186 192 150 146 142 141 148 152 163 183 189 185 188 186 186 185 177 173 166 163 164 162 154 135 141 133 123 100 85 71 60 67 68 66 64
97 64 94 342 161 216 209 129 124 74 99 59 359 139 164 149 151 146 139 146 151 158 164 173 189 196 202 206 193 190 189 183 178 176 174 171 163 167 153 144 136 116 103 94 87 76 73 70 72
80 97 193 199 198 209 186 151 153 117 115 57 52 59 136 152 156 148 147 144 155 164 179 191 195 192 199 205 203 206 208 195 193 186 182 179 176 171 158 155 152 137 124 111 114 98 77 72 74
142 156 190 230 269 160 171 153 189 125 226 190 185 174 151 158 165 157 159 165 171 178 184 192 198 198 196 195 190 196 198 202 204 196 191 187 189 175 163 161 155 147 135 123 114 107 101 91 73
94 133 173 176 315 122 167 154 143 180 210 227 162 153 144 148 158 166 170 175 177 184 196 203 204 199 193 187 197 196 203 196 198 194 192 191 185 166 166 167 165 158 139 128 102 89 76 74 66
107 244 271 163 142 126 127 190 182 199 179 104 127 142 154 160 169 179 180 182 188 195 200 206 200 190 184 182 188 189 176 163 163 166 164 164 166 167 169 166 155 143 144 147 120 91 80 71 61
160 132 258 231 203 188 182 222 168 173 156 136 146 163 171 174 177 173 181 184 192 198 202 200 190 182 178 173 182 178 168 157 155 159 159 169 171 169 161 157 153 156 161 143 107 90 73 62 62
64 318 319 225 202 212 139 282 236 165 164 172 181 179 183 191 186 192 193 194 195 193 190 184 182 168 171 171 177 174 167 167 158 159 162 162 160 157 159 151 143 134 127 126 118 96 82 74 75
48 48 339 298 146 233 130 263 248 167 164 195 194 197 199 203 200 200 198 198 192 189 181 175 167 164 168 173 171 164 161 155 157 156 154 156 155 154 151 143 136 131 124 114 106 90 87 87 92
358 233 216 312 196 133 173 253 255 160 172 200 204 205 208 208 209 204 199 198 193 189 180 174 167 165 162 166 161 155 152 149 146 146 154 153 149 148 144 134 128 131 120 108 93 89 94 96 98
202 222 243 228 207 184 204 261 248 190 193 214 205 214 213 210 213 201 196 195 193 187 179 172 171 168 165 162 157 153 149 145 146 146 153 149 147 144 141 132 132 131 118 105 94 86 96 94 113
163 195 235 257 222 168 226 252 261 202 223 234 226 219 217 217 198 198 195 193 190 188 182 178 175 172 169 162 155 150 146 144 144 145 149 149 145 142 138 133 133 128 118 106 97 93 95 107 110
234 248 260 273 242 181 248 245 257 198 224 219 223 223 220 187 178 189 190 191 193 188 186 182 180 175 173 170 165 159 153 148 145 146 147 144 143 139 135 131 127 124 117 110 102 93 92 81 119
234 212 228 233 338 261 325 272 245 253 228 242 236 229 218 201 187 183 188 193 192 192 189 186 182 176 178 177 168 158 151 145 142 144 143 143 142 137 135 130 126 123 118 107 99 95 94 99 74
238 207 199 210 130 243 155 281 263 241 246 227 244 224 220 193 183 181 186 192 194 194 190 188 181 178 182 181 174 169 160 151 152 148 144 142 142 137 134 130 126 119 112 107 101 96 93 102 106
229 168 196 203 192 351 215 285 258 235 257 255 251 230 215 191 182 186 190 190 191 189 187 185 178 182 183 184 180 173 163 159 152 149 146 143 141 138 134 131 126 120 112 106 100 97 96 96 100
134 83 49 52 80 259 227 204 198 209 233 250 254 246 204 190 192 188 183 177 184 184 181 181 186 187 188 190 187 181 169 159 155 154 150 147 144 141 137 134 128 119 113 109 104 99 98 95 94
120 104 292 314 327 241 283 233 252 254 248 227 251 258 209 189 177 171 167 173 179 181 183 187 189 188 191 192 189 184 176 169 165 162 157 154 151 148 145 142 134 128 124 117 110 109 106 104 100
196 164 169 214 216 256 1 237 248 227 257 275 260 272 182 171 180 181 177 176 176 180 185 189 190 192 192 193 189 185 178 173 170 168 164 161 158 154 152 149 143 135 129 122 119 116 112 109 99
196 214 173 19 72 357 224 285 290 252 276 276 259 206 177 184 184 180 173 176 176 182 187 190 190 190 187 188 186 184 180 176 173 171 168 164 162 159 157 154 147 141 137 131 128 125 121 120 105
163 161 91 37 227 255 267 259 232 234 229 246 265 204 199 177 169 175 178 179 183 186 189 192 192 190 190 190 189 186 183 181 177 173 172 171 168 165 162 158 155 151 148 145 145 141 141 144 131
142 191 188 140 160 207 286 254 219 210 210 226 250 232 186 185 181 181 181 183 184 185 190 192 193 190 190 191 190 187 185 183 181 178 177 176 173 171 169 168 165 162 161 160 160 160 162 173 165
178 220 163 149 211 230 186 257 184 193 187 208 254 232 194 186 181 181 179 174 178 183 189 191 193 194 193 192 190 188 186 185 183 182 182 180 179 178 177 176 173 172 172 171 175 176 178 194 202